STARLINK-1293 (45411 NORAD) Tracking and Keplerian Element Data

This shows tracking and keplerian element data for the satellite.

Feedback or suggestion? Click here.




ElementValue
Catalog45411
NameSTARLINK-1293
Epoch Orbit1145
Epoch Day149.25001157
Epoch Year2020
RAAN268.0292
Inclination52.998
Eccentricity0.0001351
Argument of Perigee49.7582
Mean Anonmoly116.2691
Mean Motion15.62701562
Decay Rate0.00055004
L11 45411U 20019BD 20149.25001157 .00055004 00000-0 60367-3 0 9993
L22 45411 52.9980 268.0292 0001351 49.7582 116.2691 15.62701562 11456

Live tracking and technical data element details for STARLINK-1293 (NORAD 45411). STARLINK-1293 can be tracked NOW for your location showing map with azimuth and elevation plus other details from your city location.

Track the satellite on the map from your city or location and see movement details for azimuth, elevation, latitude, longitude, range, height, and movement on the map or in text.







IsCatalogInMostPopularTable: catalog: 45411, numindb: 19
Update: records affected: 1



GetName: 45411 STARLINK-1293

Hit Count: updated at: Sat, 30 May 2020 15:34:53 GMT